TimeEDT,TemperatureF,Dew PointF,Humidity,Sea Level PressureIn,VisibilityMPH,Wind Direction,Wind SpeedMPH,Gust SpeedMPH,PrecipitationIn,Events,Conditions,WindDirDegrees,DateUTC
12:53 AM,73.9,66.0,76,30.14,10.0,ENE,8.1,-,N/A,,Clear,60,2013-04-17 04:53:00
1:53 AM,73.0,66.0,79,30.12,10.0,ENE,8.1,-,N/A,,Clear,60,2013-04-17 05:53:00
2:53 AM,72.0,64.9,78,30.11,10.0,ENE,4.6,-,N/A,,Clear,70,2013-04-17 06:53:00
3:53 AM,70.0,64.9,84,30.10,10.0,NE,4.6,-,N/A,,Clear,40,2013-04-17 07:53:00
4:53 AM,70.0,64.9,84,30.09,10.0,NE,4.6,-,N/A,,Partly Cloudy,40,2013-04-17 08:53:00
5:53 AM,71.1,64.9,81,30.10,10.0,NNE,4.6,-,N/A,,Clear,30,2013-04-17 09:53:00
6:53 AM,64.9,63.0,93,30.12,10.0,Calm,Calm,-,N/A,,Clear,0,2013-04-17 10:53:00
7:53 AM,70.0,66.9,90,30.13,10.0,NNE,3.5,-,N/A,,Clear,30,2013-04-17 11:53:00
8:53 AM,78.1,64.9,64,30.14,10.0,NNE,6.9,-,N/A,,Clear,30,2013-04-17 12:53:00
10:53 AM,79.0,64.9,62,30.14,10.0,ENE,9.2,-,N/A,,Partly Cloudy,60,2013-04-17 14:53:00
11:53 AM,80.1,66.0,62,30.13,10.0,NNE,10.4,-,N/A,,Scattered Clouds,20,2013-04-17 15:53:00
12:53 PM,80.1,66.0,62,30.11,10.0,East,13.8,-,N/A,,Scattered Clouds,100,2013-04-17 16:53:00
1:53 PM,81.0,64.0,56,30.10,10.0,East,10.4,17.3,N/A,,Scattered Clouds,80,2013-04-17 17:53:00
2:53 PM,82.0,66.0,58,30.08,10.0,ENE,6.9,17.3,N/A,,Scattered Clouds,60,2013-04-17 18:53:00
3:53 PM,80.1,64.0,58,30.07,10.0,NE,5.8,-,N/A,,Mostly Cloudy,40,2013-04-17 19:53:00
4:53 PM,80.1,66.0,62,30.06,10.0,ENE,8.1,-,N/A,,Mostly Cloudy,70,2013-04-17 20:53:00
5:53 PM,78.1,66.0,66,30.06,10.0,NE,11.5,19.6,N/A,,Mostly Cloudy,40,2013-04-17 21:53:00
6:53 PM,77.0,66.9,71,30.08,10.0,ENE,10.4,-,0.00,,Mostly Cloudy,60,2013-04-17 22:53:00
7:53 PM,75.0,66.0,73,30.08,10.0,ENE,5.8,-,N/A,,Clear,60,2013-04-17 23:53:00
8:53 PM,73.0,66.0,79,30.09,10.0,ENE,5.8,-,N/A,,Clear,60,2013-04-18 00:53:00
9:53 PM,72.0,66.0,81,30.09,10.0,ENE,5.8,-,N/A,,Clear,60,2013-04-18 01:53:00
10:53 PM,73.9,66.0,76,30.08,10.0,ENE,9.2,-,N/A,,Clear,70,2013-04-18 02:53:00
11:53 PM,73.0,66.0,79,30.08,10.0,ENE,6.9,-,N/A,,Clear,60,2013-04-18 03:53:00